Regional Weather Roundup
Issued by NWS

Home | Current Version | Previous Version | Text Only | Print | Product List | Glossary Off
Versions: 1 2 3 4 5 6 7 8 9 10 11 12 13 14 15 16 17 18 19 20 21 22 23 24 25 26 27 28 29 30 31 32 33 34 35 36 37 38 39 40 41 42 43 44 45 46 47 48 49 50

000
ASUS43 KMPX 032110
RWRMN
WEATHER ROUNDUP FOR MINNESOTA
NATIONAL WEATHER SERVICE TWIN CITIES/CHANHASSEN MN
400 PM CDT FRI JUL 03 2015


NOTE: "FAIR" INDICATES FEW OR NO CLOUDS BELOW 12,000 FEET WITH NO
SIGNIFICANT WEATHER AND/OR OBSTRUCTIONS TO VISIBILITY. N/A MEANS
CURRENT SKY AND/OR WEATHER CONDITIONS ARE NOT AVAILABLE.

MNZ060>063-068>070-032200-
   Twin Cities Metro

CITY           SKY/WX    TMP DP  RH WIND       PRES   REMARKS
TWIN CITIES    CLOUDY    79  56  45 SW10      29.93S
ST PAUL        MOSUNNY   78  58  49 SW9       29.92F
CRYSTAL        SUNNY     80  57  45 VRB6      29.91F
BLAINE         SUNNY     81  57  44 W12       29.92F
LAKEVILLE      SUNNY     75  57  53 W7        29.94S
EDEN PRAIRIE   SUNNY     77  59  53 SW7       29.92F
SOUTH ST PAUL  SUNNY     78  56  45 SW8       29.92F
LAKE ELMO      FAIR      79  59  50 SW9       29.93F
$$
MNZ001>005-007-008-013>017-022>024-027-028-032200-
   Northwest Minnesota

CITY           SKY/WX    TMP DP  RH WIND       PRES   REMARKS
BEMIDJI        SUNNY     78  57  49 NW7       29.93S
HALLOCK        SUNNY     79  63  57 NW6       29.91F HAZE
ROSEAU         SUNNY     79  63  57 N3        29.92S
WARROAD        SUNNY     75  63  64 E10       29.92S
THIEF RVR FALL SUNNY     79  57  47 N7        29.93S
CROOKSTON      SUNNY     81  57  44 N3        29.92S HAZE
FOSSTON        SUNNY     79  63  57 CALM      29.94S HAZE
DETROIT LAKES  MOSUNNY   79  61  53 N5        29.95S HAZE
MOORHEAD       MOSUNNY   81  63  54 N3        29.92F HAZE
PARK RAPIDS    CLOUDY    80  56  43 N8        29.92F HAZE
MAHNOMEN       FAIR      79  60  53 N7        29.92S
$$
MNZ006-009>011-018-025>026-032200-
   North Central Minnesota

CITY           SKY/WX    TMP DP  RH WIND       PRES   REMARKS
BAUDETTE       SUNNY     78  55  44 N8        29.91S
FLAG ISLAND    MOSUNNY   75  54  46 CALM      29.90S
INTL FALLS     SUNNY     78  56  46 N7G17     29.89S
WASKISH        SUNNY     79  54  41 N9        29.92S
BIG FORK       MOSUNNY   77  57  50 N3        29.90S
LONGVILLE      SUNNY     79  57  47 NW7       29.92S HAZE
GRAND RAPIDS   MOSUNNY   81  55  41 NW12G17   29.90S
CRANE LAKE     MOSUNNY   75  54  46 VRB6      29.89S
ORR            SUNNY     79  48  34 NW6       29.87S
COOK           MOSUNNY   77  54  44 NW5       29.89S
WALKER         FAIR      77  57  50 N6        29.92S HAZE
$$
MNZ012-019>021-037-032200-
   Northeast Minnesota

CITY           SKY/WX    TMP DP  RH WIND       PRES   REMARKS
DULUTH         MOSUNNY   80  60  50 W9        29.87F SMOKE
ELY            MOSUNNY   75  55  50 NW7       29.87S
HIBBING        PTSUNNY   78  57  48 NW8       29.88F
DULUTH HARBOR  MOSUNNY   82  64  54 W5        29.85S
TWO HARBORS    MOSUNNY   82  63  51 NW5       29.83S
SILVER BAY     SUNNY     81  57  44 CALM      29.83S
GRAND MARAIS     N/A     52  48  86 W9        29.80S
G MARAIS ARPRT SUNNY     73  54  49 NW7       29.87S
$$
MNZ029>031-032-039>041-046>048-054>057-064-032200-
   West Central Minnesota

CITY           SKY/WX    TMP DP  RH WIND       PRES   REMARKS
FERGUS FALLS   SUNNY     81  61  50 N6        29.91F HAZE
WHEATON        SUNNY     79  64  61 NW5       29.94F HAZE
MORRIS         MOSUNNY   82  64  54 NW5       29.92F HAZE
ALEXANDRIA     MOSUNNY   80  63  55 NW8       29.95S HAZE
ELBOW LAKE     FAIR      79  64  60 NW7       29.93S HAZE
WADENA         MOSUNNY   79  61  53 NW7       29.92F HAZE
GLENWOOD       MOSUNNY   79  64  61 NW9       29.95S HAZE
APPLETON       MOSUNNY   84  63  48 CALM      29.92F
BENSON         MOSUNNY   81  63  54 NW3       29.93S
ORTONVILLE     MOSUNNY   81  64  57 N7        29.93S HAZE
MADISON        MOSUNNY   82  63  51 CALM      29.93S
WILLMAR          N/A     81  64  57 SW7       29.95F
$$
MNZ033>034-036-042>043-049>051-058-059-032200-
   Central Minnesota

CITY           SKY/WX    TMP DP  RH WIND       PRES   REMARKS
ST CLOUD       MOSUNNY   80  63  55 SW10      29.91F
SAUK CENTRE    FAIR      79  65  63 W6        29.93F HAZE
PAYNESVILLE    PTSUNNY   77  63  61 SW7       29.94S
AITKIN         MOSUNNY   81  64  57 W6        29.89S HAZE
PINE RIVER       N/A     81  61  50 NW7       29.95S HAZE
BRAINERD       CLOUDY    80  62  54 N7        29.92S HAZE
STAPLES        MOSUNNY   81  57  44 N6        29.92S HAZE
LONG PRAIRIE   CLOUDY    77  64  65 NW6       29.93F HAZE
LITTLE FALLS   CLOUDY    81  61  50 W8        29.91S HAZE
LITCHFIELD     MOSUNNY   79  59  50 SW6       29.94F
BUFFALO        MOSUNNY   78  57  47 SW6       29.94S
MAPLE LAKE     MOSUNNY   78  62  57 SW8       29.93F
$$
MNZ037-044-045-052-053-032200-
   East Central Minnesota

CITY           SKY/WX    TMP DP  RH WIND       PRES   REMARKS
PRINCETON      MOSUNNY   81  63  54 SW7       29.91F
MORA           MOSUNNY   75  63  64 SW7       29.91S
CAMBRIDGE      MOSUNNY   81  64  57 SW6       29.89S
RUSH CITY      MOSUNNY   78  63  60 SW7       29.90F
MOOSE LAKE     MOSUNNY   79  63  57 CALM      29.87S HAZE
HINCKLEY       MOCLDY    79  66  65 SW8       29.89F
CLOQUET        MOSUNNY   79  57  47 NW3       29.88S HAZE
MCGREGOR       MOSUNNY   79  63  57 NW8       29.90S
$$
MNZ071>073-080-081-089-090-097-098-032200-
   Southwest Minnesota

CITY           SKY/WX    TMP DP  RH WIND       PRES   REMARKS
MONTEVIDEO     MOSUNNY   84  66  54 NW5       29.94S
GRANITE FALLS  MOSUNNY   80  64  56 CALM      29.95F
CANBY          PTSUNNY   81  65  58 W7        29.94F
MARSHALL       PTSUNNY   81  63  54 N5        29.93F
REDWOOD FALLS  SUNNY     80  57  45 VRB5      29.94F
OLIVIA         SUNNY     77  55  47 W7        29.94F
PIPESTONE      MOSUNNY   77  63  61 W6        29.98F
WINDOM         SUNNY     79  54  41 SW6       29.97F
WORTHINGTON    SUNNY     75  55  50 W6        29.98F
JACKSON        SUNNY     79  59  50 SW8       29.98F
TRACY          MOSUNNY   80  62  54 W5        29.96F
SLAYTON        SUNNY     78  57  48 CALM      29.99F
$$
MNZ065>067-074>077-082>085-091>093-032200-
   South Central Minnesota

CITY           SKY/WX    TMP DP  RH WIND       PRES   REMARKS
MANKATO        SUNNY     75  54  46 W8        29.95F
NEW ULM        MOSUNNY   77  57  50 W6        29.95S
ST JAMES       MOSUNNY   79  61  53 W6        29.96F
FAIRMONT       SUNNY     77  46  33 SW5       29.96F
GLENCOE        MOSUNNY   79  60  51 SW6       29.94S
FARIBAULT      SUNNY     77  54  44 SW7       29.95F
OWATONNA       SUNNY     77  50  38 SW7       29.96S
WASECA         SUNNY     77  55  47 SW7       29.97S
ALBERT LEA     SUNNY     77  52  41 W3        29.97S
$$
MNZ078>079-086>088-094>096-032200-
   Southeast Minnesota

CITY           SKY/WX    TMP DP  RH WIND       PRES   REMARKS
ROCHESTER      SUNNY     76  54  46 VRB5      29.96F
RED WING       SUNNY     79  54  41 W7        29.92S
STANTON        SUNNY     77  55  47 W7        29.93S
DODGE CENTER   SUNNY     75  55  50 SW6       29.96F
WINONA         SUNNY     77  55  47 SW6       29.94F
AUSTIN         SUNNY     79  54  41 W3        29.96F
PRESTON        SUNNY     75  55  51 CALM      29.97F
$$
ABBREVIATIONS USED IN REMARKS
   TC - TEMPERATURES IN CELSIUS
  WCI - WIND CHILL INDEX
   HX - HEAT INDEX
  VSB - VISIBILITY
$$


USA.gov is the U.S. government's official web portal to all federal, state and local government web resources and services.